DW2640 Weather Reports


time (UTC)temp
F
wind
direction
speed
knots
gust
knots
rain 1hr
in
rain 24hr
in
rain mn
in
humidity
%
barometer
mb
20260906194515 100 295 4.3 8.7 0.00 0.00 0.00 34 1009.8
20260906193013 99 234 5.2 10.4 0.00 0.00 0.00 35 1010.0
20260906191513 99 232 6.1 12.2 0.00 0.00 0.00 35 1010.2
20260906190012 99 253 2.6 7.8 0.00 0.00 0.00 35 1010.3
20260906184511 98 223 3.5 9.6 0.00 0.00 0.00 36 1010.6
20260906183026 98 173 0.9 8.7 0.00 0.00 0.00 37 1010.9
20260906181510 99 140 3.5 7.0 0.00 0.00 0.00 36 1011.0
20260906180012 99 146 6.1 10.4 0.00 0.00 0.00 36 1011.4
20260906174507 100 202 1.7 7.0 0.00 0.00 0.00 35 1011.8
20260906173008 99 300 3.5 6.1 0.00 0.00 0.00 38 1011.9
20260906171504 97 321 4.3 6.1 0.00 0.00 0.00 38 1012.2
20260906170100 97 60 0.9 6.1 0.00 0.00 0.00 39 1012.5
20260906164602 96 286 5.2 7.0 0.00 0.00 0.00 40 1012.4
20260906163058 95 265 5.2 7.8 0.00 0.00 0.00 41 1012.6
20260906161602 96 324 2.6 5.2 0.00 0.00 0.00 42 1012.6
20260906160055 95 279 0.0 5.2 0.00 0.00 0.00 44 1012.6
20260906154548 93 262 1.7 6.1 0.00 0.00 0.00 46 1012.6
20260906153047 92 324 3.5 6.1 0.00 0.00 0.00 47 1012.6
20260906151543 91 297 1.7 6.1 0.00 0.00 0.00 47 1012.5
20260906150053 90 297 1.7 5.2 0.00 0.00 0.00 50 1012.5
20260906144555 90 265 0.9 4.3 0.00 0.00 0.00 50 1012.5
20260906143038 90 174 0.9 4.3 0.00 0.00 0.00 53 1012.4
20260906141537 87 107 0.0 1.7 0.00 0.00 0.00 55 1012.5
20260906140028 86 107 1.7 3.5 0.00 0.00 0.00 60 1012.5
20260906134524 84 77 0.0 1.7 0.00 0.00 0.00 64 1012.3
20260906133023 81 77 0.0 1.7 0.00 0.00 0.00 66 1011.9
20260906131526 78 77 0.0 1.7 0.00 0.00 0.00 69 1011.7
20260906130033 77 77 0.0 0.9 0.00 0.00 0.00 70 1011.7
20260906124519 76 77 0.0 1.7 0.00 0.00 0.00 72 1011.5
20260906123017 75 77 0.9 1.7 0.00 0.00 0.00 73 1011.4
20260906121515 75 77 0.0 1.7 0.00 0.00 0.00 73 1011.2
20260906120013 75 77 0.0 1.7 0.00 0.00 0.00 73 1011.1
20260906114517 76 77 0.0 1.7 0.00 0.00 0.00 71 1010.8
20260906113011 76 77 0.0 1.7 0.00 0.00 0.00 71 1010.9
20260906111508 76 77 0.0 1.7 0.00 0.00 0.00 71 1010.7
20260906110010 76 77 0.9 1.7 0.00 0.00 0.00 71 1010.8
20260906104514 76 77 0.0 1.7 0.00 0.00 0.00 70 1010.6
20260906103005 76 77 0.0 1.7 0.00 0.00 0.00 69 1010.6
20260906101505 76 77 0.9 0.9 0.00 0.00 0.00 70 1010.4
20260906100004 76 77 0.9 1.7 0.00 0.00 0.00 70 1010.4
20260906094508 76 77 1.7 1.7 0.00 0.00 0.00 70 1010.4
20260906093000 77 77 1.7 3.5 0.00 0.00 0.00 69 1010.4
20260906091604 77 131 1.7 3.5 0.00 0.00 0.00 68 1010.3
20260906090057 78 131 0.0 0.9 0.00 0.00 0.00 67 1010.3
20260906084556 78 131 0.9 0.9 0.00 0.00 0.00 67 1010.3
20260906083055 78 131 0.0 1.7 0.00 0.00 0.00 66 1010.2
20260906081555 79 131 0.9 1.7 0.00 0.00 0.00 65 1010.1
20260906080053 80 131 0.0 1.7 0.00 0.00 0.00 63 1010.4
20260906074548 80 131 0.0 1.7 0.00 0.00 0.00 62 1010.1
20260906073046 80 131 0.0 1.7 0.00 0.00 0.00 62 1010.0
20260906071545 80 131 0.0 1.7 0.00 0.00 0.00 61 1010.1
20260906070044 81 131 0.0 1.7 0.00 0.00 0.00 61 1010.1
20260906064541 81 131 0.9 1.7 0.00 0.00 0.00 61 1010.2
20260906063039 81 131 0.0 1.7 0.00 0.00 0.00 62 1010.0
20260906061540 81 131 0.0 1.7 0.00 0.00 0.00 62 1010.1
20260906060034 81 131 0.0 1.7 0.00 0.00 0.00 61 1010.0
20260906054533 82 131 0.0 1.7 0.00 0.00 0.00 60 1010.1
20260906053031 82 131 0.9 2.6 0.00 0.00 0.00 60 1010.2
20260906051528 82 131 0.9 1.7 0.00 0.00 0.00 59 1010.1
20260906050025 83 138 0.0 1.7 0.00 0.00 0.00 58 1010.0
20260906044529 83 141 1.7 3.5 0.00 0.00 0.00 57 1010.2
20260906043024 84 200 0.9 3.5 0.00 0.00 0.00 56 1010.0
20260906041523 84 192 0.0 1.7 0.00 0.00 0.00 56 1010.0
20260906040030 84 192 0.9 1.7 0.00 0.00 0.00 56 1010.2
20260906034523 84 192 0.9 1.7 0.00 0.00 0.00 56 1010.1
20260906033022 85 192 0.0 1.7 0.00 0.00 0.00 54 1010.1
20260906031535 86 192 0.0 1.7 0.00 0.00 0.00 53 1009.9
20260906030021 86 192 0.0 1.7 0.00 0.00 0.00 53 1009.8
20260906024521 86 192 0.9 3.5 0.00 0.00 0.00 53 1009.4
20260906023020 87 202 0.0 1.7 0.00 0.00 0.00 51 1009.4
20260906021520 88 202 0.9 2.6 0.00 0.00 0.00 50 1009.2
20260906020026 88 189 0.9 3.5 0.00 0.00 0.00 49 1008.9
20260906014519 89 189 0.0 1.7 0.00 0.00 0.00 49 1008.7
20260906013018 90 189 0.0 1.7 0.00 0.00 0.00 47 1008.5
20260906011518 91 189 0.9 1.7 0.00 0.00 0.00 46 1008.2
20260906010016 91 189 0.9 4.3 0.00 0.00 0.00 45 1008.0
20260906004517 92 187 0.9 3.5 0.00 0.00 0.00 45 1008.0
20260906003023 93 203 1.7 5.2 0.00 0.00 0.00 44 1008.3
20260906001515 95 219 0.0 2.6 0.00 0.00 0.00 41 1008.5
20260906000015 96 203 0.9 4.3 0.00 0.00 0.00 38 1008.4
20260905234515 98 225 2.6 7.0 0.00 0.00 0.00 35 1008.5
20260905233017 99 215 4.3 8.7 0.00 0.00 0.00 35 1008.6
20260905231514 99 232 5.2 8.7 0.00 0.00 0.00 35 1008.3
20260905230013 99 203 2.6 6.1 0.00 0.00 0.00 34 1008.3
20260905224511 99 182 2.6 10.4 0.00 0.00 0.00 35 1008.4
20260905223029 99 223 3.5 10.4 0.00 0.00 0.00 35 1008.2
20260905221529 99 168 7.0 13.0 0.00 0.00 0.00 36 1008.2
20260905220009 100 140 2.6 10.4 0.00 0.00 0.00 35 1007.9
20260905214508 100 244 7.0 11.3 0.00 0.00 0.00 33 1008.1
20260905213008 100 223 4.3 13.9 0.00 0.00 0.00 34 1008.1
20260905211517 100 177 6.1 9.6 0.00 0.00 0.00 35 1008.1
20260905210005 99 144 3.5 11.3 0.00 0.00 0.00 35 1008.5
20260905204604 98 208 4.3 8.7 0.00 0.00 0.00 37 1008.8
20260905203100 99 213 3.5 11.3 0.00 0.00 0.00 37 1008.8
20260905201608 99 254 7.8 11.3 0.00 0.00 0.00 36 1009.4
20260905200123 99 186 4.3 10.4 0.00 0.00 0.00 35 1009.5